星链-11155 [DTC] (STARLINK-11155 [DTC] )

导读 | 豆包AI

STARLINK-11155是美国SpaceX星链星座的一员,于北京时间2024年6月8日发射入轨。星链项目旨在构建全球卫星互联网星座,为全球范围提供高速低延迟互联网服务,该卫星承担着扩展星座覆盖范围、提升服务容量的作用,推动星链系统不断完成部署迭代。

基本信息
目录编号:
60046
目录名称:
STARLINK-11155
国际标识:
2024-112J
轨道中心:
EARTH
卫星名称:
星链-11155 [DTC]
卫星全名:
星链-11155 [DTC] (STARLINK-11155 [DTC] )
卫星状态:
在轨 (已飞行645 天)
发射日期:
2024-06-08 UTC
国别 :
美国 (US)
星等 :
--
轨道信息
数据来源 国际轨道数据 AOE轨道数据
星历时间 2026-03-15T12:06:40+0800
14小时前
查看轨道信息
2026-03-13T09:00:00+0800
2天前
查看轨道信息
半长轴 6737.871km 6737.779km
偏心率 0.0000783 0.0000707
轨道倾角 53.158° 53.160°
近地点辐角 78.420° 45.557°
升交点赤经 239.122° 249.622°
平近点角 281.690° 153.201°
近地点 359.206km 359.165km
远地点 360.262km 360.119km
周期 91.737分钟 91.735分钟
每日圈数 15.697075 15.697399
详细信息
固有亮度:
5
最大亮度:
0.3
卫星平台:
Starlink v2.0 mini
覆盖范围:
全球
运营商:
太空探索技术公司
运营商所在国:
美国
制造商(研发单位):
太空探索技术公司
制造商所在国:
美国
使用方式:
暂无
卫星简介
星链(Starlink)计划是由太空探索技术公司(SpaceX)提出的一个巨型低轨卫星互联网星座项目,计划在2019年至2024年间在太空搭建由约1.2万颗卫星组成的“星链”网络,其中1584颗将部署在地球上空550千米处的近地轨道,并从2020年开始工作。该卫星仍在工作。
2D轨道图
3D轨道图
轨道高度分析图
轨道倾角分析图
轨道综合分析图
查看轨道综合分析图